Time,TemperatureF,DewpointF,PressureIn,WindDirection,WindDirectionDegrees,WindSpeedMPH,WindSpeedGustMPH,Humidity,HourlyPrecipIn,Conditions,Clouds,dailyrainin,SoftwareType,DateUTC
2013-01-07 00:10:00,27.0,22.5,29.81,SE,135,4.2,-999.0,83,-99.99,,,0.00,Acu-Link.com,2013-01-07 06:10:00,
2013-01-07 00:25:00,26.2,22.3,29.82,ESE,112,4.7,-999.0,85,-99.99,,,0.00,Acu-Link.com,2013-01-07 06:25:00,
2013-01-07 00:40:00,25.5,21.4,29.82,SSE,157,4.7,-999.0,84,-99.99,,,0.00,Acu-Link.com,2013-01-07 06:40:00,
2013-01-07 00:56:00,25.0,21.1,29.81,SE,135,6.8,-999.0,85,-99.99,,,0.00,Acu-Link.com,2013-01-07 06:56:00,
2013-01-07 01:11:00,27.9,22.5,29.81,South,180,8.9,-999.0,80,-99.99,,,0.00,Acu-Link.com,2013-01-07 07:11:00,
2013-01-07 01:26:00,29.3,23.0,29.81,SSE,157,8.3,-999.0,77,-99.99,,,0.00,Acu-Link.com,2013-01-07 07:26:00,
2013-01-07 01:42:00,29.1,22.5,29.80,South,180,8.9,-999.0,76,-99.99,,,0.00,Acu-Link.com,2013-01-07 07:42:00,
2013-01-07 01:57:00,29.1,22.5,29.80,South,180,7.3,-999.0,76,-99.99,,,0.00,Acu-Link.com,2013-01-07 07:57:00,
2013-01-07 02:12:00,28.4,22.1,29.80,ESE,112,8.3,-999.0,77,-99.99,,,0.00,Acu-Link.com,2013-01-07 08:12:00,
2013-01-07 02:28:00,29.7,22.8,29.81,ESE,112,5.8,-999.0,75,-99.99,,,0.00,Acu-Link.com,2013-01-07 08:28:00,
2013-01-07 02:43:00,29.8,22.5,29.81,SSE,157,6.8,-999.0,74,-99.99,,,0.00,Acu-Link.com,2013-01-07 08:43:00,
2013-01-07 02:58:00,28.2,21.9,29.81,SSE,157,8.3,-999.0,77,-99.99,,,0.00,Acu-Link.com,2013-01-07 08:58:00,
2013-01-07 03:13:00,26.6,21.0,29.80,SE,135,6.8,-999.0,79,-99.99,,,0.00,Acu-Link.com,2013-01-07 09:13:00,
2013-01-07 03:28:00,26.2,21.2,29.80,SE,135,7.8,-999.0,81,-99.99,,,0.00,Acu-Link.com,2013-01-07 09:28:00,
2013-01-07 03:44:00,27.0,21.7,29.80,SE,135,6.3,-999.0,80,-99.99,,,0.00,Acu-Link.com,2013-01-07 09:44:00,
2013-01-07 03:59:00,26.4,21.1,29.79,SSE,157,5.3,-999.0,80,-99.99,,,0.00,Acu-Link.com,2013-01-07 09:59:00,
2013-01-07 04:14:00,25.7,20.7,29.78,SSE,157,6.8,-999.0,81,-99.99,,,0.00,Acu-Link.com,2013-01-07 10:14:00,
2013-01-07 04:30:00,25.7,21.0,29.78,ESE,112,6.8,-999.0,82,-99.99,,,0.00,Acu-Link.com,2013-01-07 10:30:00,
2013-01-07 04:45:00,25.3,20.6,29.77,SE,135,6.3,-999.0,82,-99.99,,,0.00,Acu-Link.com,2013-01-07 10:45:00,
2013-01-07 05:00:00,24.4,20.0,29.77,ESE,112,6.3,-999.0,83,-99.99,,,0.00,Acu-Link.com,2013-01-07 11:00:00,
2013-01-07 05:16:00,24.4,20.3,29.77,SE,135,8.3,-999.0,84,-99.99,,,0.00,Acu-Link.com,2013-01-07 11:16:00,
2013-01-07 05:31:00,30.7,23.4,29.75,SSE,157,15.5,-999.0,74,-99.99,,,0.00,Acu-Link.com,2013-01-07 11:31:00,
2013-01-07 05:46:00,32.5,23.8,29.74,South,180,15.0,-999.0,70,-99.99,,,0.00,Acu-Link.com,2013-01-07 11:46:00,
2013-01-07 06:01:00,32.9,24.2,29.73,NW,315,17.1,-999.0,70,-99.99,,,0.00,Acu-Link.com,2013-01-07 12:01:00,
2013-01-07 06:17:00,33.8,24.4,29.72,SSE,157,17.1,-999.0,68,-99.99,,,0.00,Acu-Link.com,2013-01-07 12:17:00,
2013-01-07 06:32:00,34.5,24.3,29.72,ESE,112,17.6,-999.0,66,-99.99,,,0.01,Acu-Link.com,2013-01-07 12:32:00,
2013-01-07 06:47:00,34.9,24.7,29.74,SSW,202,16.1,-999.0,66,-99.99,,,0.01,Acu-Link.com,2013-01-07 12:47:00,
2013-01-07 07:02:00,34.9,24.3,29.75,WSW,247,11.4,-999.0,65,-99.99,,,0.01,Acu-Link.com,2013-01-07 13:02:00,
2013-01-07 07:17:00,34.7,24.5,29.75,SSW,202,14.0,-999.0,66,-99.99,,,0.01,Acu-Link.com,2013-01-07 13:17:00,
2013-01-07 07:33:00,35.1,24.5,29.74,South,180,13.0,-999.0,65,-99.99,,,0.01,Acu-Link.com,2013-01-07 13:33:00,
2013-01-07 07:48:00,35.6,24.6,29.74,WSW,247,18.1,-999.0,64,-99.99,,,0.01,Acu-Link.com,2013-01-07 13:48:00,
2013-01-07 08:03:00,35.4,24.8,29.75,SW,225,13.5,-999.0,65,-99.99,,,0.01,Acu-Link.com,2013-01-07 14:03:00,
2013-01-07 08:19:00,35.6,24.6,29.75,SSW,202,5.8,-999.0,64,-99.99,,,0.01,Acu-Link.com,2013-01-07 14:19:00,
2013-01-07 08:34:00,35.8,24.8,29.76,SSW,202,9.4,-999.0,64,-99.99,,,0.01,Acu-Link.com,2013-01-07 14:34:00,
2013-01-07 08:49:00,37.0,25.2,29.76,SSW,202,6.3,-999.0,62,-99.99,,,0.01,Acu-Link.com,2013-01-07 14:49:00,
2013-01-07 09:05:00,38.5,25.8,29.75,SSW,202,11.4,-999.0,60,-99.99,,,0.01,Acu-Link.com,2013-01-07 15:05:00,
2013-01-07 09:20:00,39.0,26.3,29.76,SSW,202,13.0,-999.0,60,-99.99,,,0.01,Acu-Link.com,2013-01-07 15:20:00,
2013-01-07 09:35:00,39.6,26.5,29.76,SW,225,10.4,-999.0,59,-99.99,,,0.01,Acu-Link.com,2013-01-07 15:35:00,
2013-01-07 09:50:00,40.1,26.5,29.77,South,180,11.9,-999.0,58,-99.99,,,0.01,Acu-Link.com,2013-01-07 15:50:00,
2013-01-07 10:05:00,40.3,27.1,29.77,SW,225,6.3,-999.0,59,-99.99,,,0.01,Acu-Link.com,2013-01-07 16:05:00,
2013-01-07 10:21:00,40.5,26.9,29.78,SW,225,8.3,-999.0,58,-99.99,,,0.01,Acu-Link.com,2013-01-07 16:21:00,
2013-01-07 10:36:00,41.0,26.9,29.78,SW,225,7.8,-999.0,57,-99.99,,,0.01,Acu-Link.com,2013-01-07 16:36:00,
2013-01-07 10:51:00,41.2,27.1,29.78,SW,225,17.1,-999.0,57,-99.99,,,0.01,Acu-Link.com,2013-01-07 16:51:00,
2013-01-07 11:06:00,41.0,27.4,29.78,WSW,247,10.4,-999.0,58,-99.99,,,0.01,Acu-Link.com,2013-01-07 17:06:00,
2013-01-07 11:22:00,41.2,27.1,29.77,SW,225,11.4,-999.0,57,-99.99,,,0.01,Acu-Link.com,2013-01-07 17:22:00,
2013-01-07 11:37:00,41.4,27.7,29.76,SSW,202,12.5,-999.0,58,-99.99,,,0.01,Acu-Link.com,2013-01-07 17:37:00,
2013-01-07 11:52:00,41.7,27.2,29.76,WSW,247,12.5,-999.0,56,-99.99,,,0.01,Acu-Link.com,2013-01-07 17:52:00,
2013-01-07 12:07:00,41.4,27.7,29.75,SSW,202,15.0,-999.0,58,-99.99,,,0.01,Acu-Link.com,2013-01-07 18:07:00,
2013-01-07 12:22:00,41.9,28.2,29.75,SW,225,13.5,-999.0,58,-99.99,,,0.01,Acu-Link.com,2013-01-07 18:22:00,
2013-01-07 12:37:00,42.4,27.8,29.74,SSW,202,13.0,-999.0,56,-99.99,,,0.01,Acu-Link.com,2013-01-07 18:37:00,
2013-01-07 12:53:00,43.2,28.1,29.73,SW,225,16.6,-999.0,55,-99.99,,,0.01,Acu-Link.com,2013-01-07 18:53:00,
2013-01-07 13:08:00,43.7,28.6,29.74,WSW,247,15.0,-999.0,55,-99.99,,,0.01,Acu-Link.com,2013-01-07 19:08:00,
2013-01-07 13:24:00,43.3,28.2,29.73,SSW,202,14.5,-999.0,55,-99.99,,,0.01,Acu-Link.com,2013-01-07 19:24:00,
2013-01-07 13:39:00,42.8,28.6,29.73,SW,225,11.4,-999.0,57,-99.99,,,0.01,Acu-Link.com,2013-01-07 19:39:00,
2013-01-07 13:54:00,43.9,29.2,29.74,SSW,202,10.4,-999.0,56,-99.99,,,0.01,Acu-Link.com,2013-01-07 19:54:00,
2013-01-07 14:09:00,44.1,28.5,29.74,SW,225,16.1,-999.0,54,-99.99,,,0.01,Acu-Link.com,2013-01-07 20:09:00,
2013-01-07 14:24:00,43.0,28.0,29.73,SW,225,11.4,-999.0,55,-99.99,,,0.01,Acu-Link.com,2013-01-07 20:24:00,
2013-01-07 14:40:00,42.6,28.4,29.74,SW,225,9.9,-999.0,57,-99.99,,,0.01,Acu-Link.com,2013-01-07 20:40:00,
2013-01-07 14:55:00,42.6,28.4,29.74,SW,225,9.9,-999.0,57,-99.99,,,0.01,Acu-Link.com,2013-01-07 20:55:00,
2013-01-07 15:10:00,42.6,28.9,29.74,SW,225,6.3,-999.0,58,-99.99,,,0.01,Acu-Link.com,2013-01-07 21:10:00,
2013-01-07 15:25:00,42.4,29.1,29.75,SW,225,10.9,-999.0,59,-99.99,,,0.01,Acu-Link.com,2013-01-07 21:25:00,
2013-01-07 15:41:00,42.3,29.0,29.75,WSW,247,8.3,-999.0,59,-99.99,,,0.01,Acu-Link.com,2013-01-07 21:41:00,
2013-01-07 15:56:00,42.1,29.2,29.75,SW,225,6.3,-999.0,60,-99.99,,,0.01,Acu-Link.com,2013-01-07 21:56:00,
2013-01-07 16:11:00,42.1,29.2,29.76,WSW,247,6.8,-999.0,60,-99.99,,,0.01,Acu-Link.com,2013-01-07 22:11:00,
2013-01-07 16:26:00,41.5,29.1,29.74,WSW,247,4.2,-999.0,61,-99.99,,,0.01,Acu-Link.com,2013-01-07 22:26:00,
2013-01-07 16:41:00,41.0,29.4,29.74,SSW,202,4.7,-999.0,63,-99.99,,,0.01,Acu-Link.com,2013-01-07 22:41:00,
2013-01-07 16:57:00,40.1,28.5,29.74,NE,45,4.7,-999.0,63,-99.99,,,0.01,Acu-Link.com,2013-01-07 22:57:00,
2013-01-07 17:12:00,39.4,28.6,29.74,SSW,202,2.7,-999.0,65,-99.99,,,0.01,Acu-Link.com,2013-01-07 23:12:00,
2013-01-07 17:27:00,39.0,28.6,29.73,SSE,157,3.7,-999.0,66,-99.99,,,0.01,Acu-Link.com,2013-01-07 23:27:00,
2013-01-07 17:42:00,37.4,27.8,29.75,NNW,337,0.0,-999.0,68,-99.99,,,0.01,Acu-Link.com,2013-01-07 23:42:00,
2013-01-07 17:58:00,35.6,27.5,29.74,East,90,0.0,-999.0,72,-99.99,,,0.01,Acu-Link.com,2013-01-07 23:58:00,
2013-01-07 18:13:00,34.5,27.7,29.74,WNW,292,0.0,-999.0,76,-99.99,,,0.01,Acu-Link.com,2013-01-08 00:13:00,
2013-01-07 18:28:00,33.3,26.9,29.75,SSW,202,0.0,-999.0,77,-99.99,,,0.01,Acu-Link.com,2013-01-08 00:28:00,
2013-01-07 18:44:00,33.6,27.5,29.75,SW,225,1.7,-999.0,78,-99.99,,,0.01,Acu-Link.com,2013-01-08 00:44:00,
2013-01-07 18:59:00,32.9,27.1,29.75,NNW,337,0.0,-999.0,79,-99.99,,,0.01,Acu-Link.com,2013-01-08 00:59:00,
2013-01-07 19:14:00,32.2,27.0,29.75,WSW,247,0.0,-999.0,81,-99.99,,,0.01,Acu-Link.com,2013-01-08 01:14:00,
2013-01-07 19:29:00,32.0,27.4,29.75,ENE,67,0.0,-999.0,83,-99.99,,,0.01,Acu-Link.com,2013-01-08 01:29:00,
2013-01-07 19:44:00,31.3,26.5,29.75,NNW,337,1.1,-999.0,82,-99.99,,,0.01,Acu-Link.com,2013-01-08 01:44:00,
2013-01-07 20:00:00,30.2,26.5,29.75,West,270,0.0,-999.0,86,-99.99,,,0.01,Acu-Link.com,2013-01-08 02:00:00,
2013-01-07 20:15:00,29.8,26.4,29.74,NNE,22,2.7,-999.0,87,-99.99,,,0.01,Acu-Link.com,2013-01-08 02:15:00,
2013-01-07 20:30:00,29.5,26.4,29.74,NE,45,1.1,-999.0,88,-99.99,,,0.01,Acu-Link.com,2013-01-08 02:30:00,
2013-01-07 20:46:00,29.1,26.5,29.74,East,90,0.0,-999.0,90,-99.99,,,0.01,Acu-Link.com,2013-01-08 02:46:00,
2013-01-07 21:01:00,28.8,26.2,29.75,NW,315,1.7,-999.0,90,-99.99,,,0.01,Acu-Link.com,2013-01-08 03:01:00,
2013-01-07 21:16:00,28.0,26.0,29.74,WNW,292,0.0,-999.0,92,-99.99,,,0.01,Acu-Link.com,2013-01-08 03:16:00,
2013-01-07 21:32:00,27.3,25.3,29.74,SW,225,0.0,-999.0,92,-99.99,,,0.01,Acu-Link.com,2013-01-08 03:32:00,
2013-01-07 21:47:00,27.5,26.5,29.73,ESE,112,2.7,-999.0,96,-99.99,,,0.01,Acu-Link.com,2013-01-08 03:47:00,
2013-01-07 22:02:00,28.4,26.1,29.73,East,90,1.7,-999.0,91,-99.99,,,0.01,Acu-Link.com,2013-01-08 04:02:00,
2013-01-07 22:17:00,27.3,24.5,29.73,East,90,0.0,-999.0,89,-99.99,,,0.01,Acu-Link.com,2013-01-08 04:17:00,
2013-01-07 22:33:00,26.6,24.9,29.73,ENE,67,0.0,-999.0,93,-99.99,,,0.01,Acu-Link.com,2013-01-08 04:33:00,
2013-01-07 22:48:00,27.0,26.0,29.73,NW,315,0.0,-999.0,96,-99.99,,,0.01,Acu-Link.com,2013-01-08 04:48:00,
2013-01-07 23:03:00,26.2,24.5,29.72,West,270,0.0,-999.0,93,-99.99,,,0.01,Acu-Link.com,2013-01-08 05:03:00,
2013-01-07 23:19:00,25.9,24.9,29.72,SSE,157,0.0,-999.0,96,-99.99,,,0.01,Acu-Link.com,2013-01-08 05:19:00,
2013-01-07 23:34:00,28.0,26.8,29.72,ESE,112,4.2,-999.0,95,-99.99,,,0.01,Acu-Link.com,2013-01-08 05:34:00,
2013-01-07 23:49:00,27.9,26.1,29.72,SSE,157,2.2,-999.0,93,-99.99,,,0.01,Acu-Link.com,2013-01-08 05:49:00,